Time,TemperatureF,DewpointF,PressureIn,WindDirection,WindDirectionDegrees,WindSpeedMPH,WindSpeedGustMPH,Humidity,HourlyPrecipIn,Conditions,Clouds,dailyrainin,SoftwareType,DateUTC
2013-05-30 00:03:00,71.0,62.0,30.08,SE,126,4.0,5.0,72,0.00,,,0.00,,2013-05-30 04:03:00,
2013-05-30 00:13:00,71.0,62.0,30.08,SE,126,4.0,5.0,72,0.00,,,0.00,,2013-05-30 04:13:00,
2013-05-30 00:23:00,71.0,62.0,30.09,SE,128,4.0,5.0,72,0.00,,,0.00,,2013-05-30 04:23:00,
2013-05-30 00:33:00,71.0,61.0,30.09,SE,126,4.0,6.0,71,0.00,,,0.00,,2013-05-30 04:33:00,
2013-05-30 00:42:00,71.0,61.0,30.09,SE,126,4.0,6.0,71,0.00,,,0.00,,2013-05-30 04:42:00,
2013-05-30 00:53:00,72.0,62.0,30.09,SE,126,3.0,6.0,71,0.00,,,0.00,,2013-05-30 04:53:00,
2013-05-30 01:02:00,72.0,62.0,30.09,SE,128,3.0,5.0,71,0.00,,,0.00,,2013-05-30 05:02:00,
2013-05-30 01:12:00,72.0,62.0,30.09,SE,128,3.0,5.0,71,0.00,,,0.00,,2013-05-30 05:12:00,
2013-05-30 01:22:00,72.0,62.0,30.09,SE,133,2.0,5.0,71,0.00,,,0.00,,2013-05-30 05:22:00,
2013-05-30 01:32:00,73.0,63.0,30.10,SE,134,3.0,5.0,71,0.00,,,0.00,,2013-05-30 05:32:00,
2013-05-30 01:42:00,73.0,63.0,30.10,SE,134,3.0,5.0,71,0.00,,,0.00,,2013-05-30 05:42:00,
2013-05-30 01:52:00,73.0,63.0,30.10,SE,136,3.0,7.0,72,0.00,,,0.00,,2013-05-30 05:52:00,
2013-05-30 02:01:00,73.0,64.0,30.11,ESE,118,4.0,6.0,73,0.00,,,0.00,,2013-05-30 06:01:00,
2013-05-30 02:12:00,73.0,64.0,30.11,ESE,118,4.0,6.0,73,0.00,,,0.00,,2013-05-30 06:12:00,
2013-05-30 02:22:00,73.0,64.0,30.11,SSE,151,3.0,6.0,73,0.00,,,0.00,,2013-05-30 06:22:00,
2013-05-30 02:32:00,72.0,63.0,30.11,SE,138,2.0,6.0,73,0.00,,,0.00,,2013-05-30 06:32:00,
2013-05-30 02:42:00,72.0,63.0,30.11,SE,138,2.0,6.0,73,0.00,,,0.00,,2013-05-30 06:42:00,
2013-05-30 02:52:00,72.0,63.0,30.11,SSE,158,3.0,7.0,74,0.00,,,0.00,,2013-05-30 06:52:00,
2013-05-30 03:01:00,72.0,64.0,30.11,SE,130,3.0,6.0,76,0.00,,,0.00,,2013-05-30 07:01:00,
2013-05-30 03:12:00,72.0,64.0,30.11,SE,130,3.0,6.0,76,0.00,,,0.00,,2013-05-30 07:12:00,
2013-05-30 03:22:00,72.0,64.0,30.11,SE,137,3.0,6.0,76,0.00,,,0.00,,2013-05-30 07:22:00,
2013-05-30 03:32:00,71.0,64.0,30.12,SSE,152,3.0,6.0,78,0.00,,,0.00,,2013-05-30 07:32:00,
2013-05-30 03:42:00,71.0,64.0,30.12,SSE,152,3.0,6.0,78,0.00,,,0.00,,2013-05-30 07:42:00,
2013-05-30 03:52:00,71.0,64.0,30.12,SE,135,3.0,5.0,79,0.00,,,0.00,,2013-05-30 07:52:00,
2013-05-30 04:02:00,71.0,65.0,30.11,SSE,158,3.0,6.0,80,0.00,,,0.00,,2013-05-30 08:02:00,
2013-05-30 04:11:00,71.0,65.0,30.11,SSE,158,3.0,6.0,80,0.00,,,0.00,,2013-05-30 08:11:00,
2013-05-30 04:22:00,70.0,64.0,30.11,SE,129,4.0,6.0,82,0.00,,,0.00,,2013-05-30 08:22:00,
2013-05-30 04:32:00,70.0,64.0,30.11,SE,134,4.0,6.0,82,0.00,,,0.00,,2013-05-30 08:32:00,
2013-05-30 04:42:00,70.0,64.0,30.11,SE,134,4.0,6.0,82,0.00,,,0.00,,2013-05-30 08:42:00,
2013-05-30 04:53:00,70.0,65.0,30.11,SE,133,4.0,6.0,83,0.00,,,0.00,,2013-05-30 08:53:00,
2013-05-30 05:01:00,69.0,64.0,30.11,ESE,123,6.0,9.0,84,0.00,,,0.00,,2013-05-30 09:01:00,
2013-05-30 05:11:00,69.0,64.0,30.11,ESE,123,6.0,9.0,84,0.00,,,0.00,,2013-05-30 09:11:00,
2013-05-30 05:21:00,70.0,65.0,30.11,ESE,120,5.0,9.0,83,0.00,,,0.00,,2013-05-30 09:21:00,
2013-05-30 05:33:00,70.0,65.0,30.12,SSE,161,3.0,6.0,83,0.00,,,0.00,,2013-05-30 09:33:00,
2013-05-30 05:42:00,70.0,65.0,30.12,SSE,161,3.0,6.0,83,0.00,,,0.00,,2013-05-30 09:42:00,
2013-05-30 05:53:00,70.0,65.0,30.11,SSE,161,4.0,7.0,84,0.00,,,0.00,,2013-05-30 09:53:00,
2013-05-30 06:03:00,70.0,65.0,30.12,SE,124,3.0,6.0,84,0.00,,,0.00,,2013-05-30 10:03:00,
2013-05-30 06:13:00,70.0,65.0,30.12,SE,124,3.0,6.0,84,0.00,,,0.00,,2013-05-30 10:13:00,
2013-05-30 06:23:00,70.0,65.0,30.13,SE,140,3.0,9.0,84,0.00,,,0.00,,2013-05-30 10:23:00,
2013-05-30 06:33:00,70.0,65.0,30.13,SSE,158,5.0,11.0,84,0.00,,,0.00,,2013-05-30 10:33:00,
2013-05-30 06:42:00,70.0,65.0,30.13,SSE,158,5.0,11.0,84,0.00,,,0.00,,2013-05-30 10:42:00,
2013-05-30 06:52:00,71.0,66.0,30.13,SSE,149,5.0,9.0,83,0.00,,,0.00,,2013-05-30 10:52:00,
2013-05-30 07:03:00,71.0,66.0,30.14,SE,144,5.0,9.0,84,0.00,,,0.00,,2013-05-30 11:03:00,
2013-05-30 07:12:00,71.0,66.0,30.14,SE,144,5.0,9.0,84,0.00,,,0.00,,2013-05-30 11:12:00,
2013-05-30 07:22:00,71.0,66.0,30.14,SE,146,4.0,7.0,84,0.00,,,0.00,,2013-05-30 11:22:00,
2013-05-30 07:32:00,72.0,67.0,30.14,South,169,6.0,12.0,83,0.00,,,0.00,,2013-05-30 11:32:00,
2013-05-30 07:42:00,72.0,67.0,30.14,South,169,6.0,12.0,83,0.00,,,0.00,,2013-05-30 11:42:00,
2013-05-30 07:52:00,72.0,66.0,30.15,SE,133,7.0,11.0,82,0.00,,,0.00,,2013-05-30 11:52:00,
2013-05-30 08:02:00,73.0,67.0,30.15,SE,136,7.0,14.0,81,0.00,,,0.00,,2013-05-30 12:02:00,
2013-05-30 08:11:00,73.0,67.0,30.15,SE,136,7.0,14.0,81,0.00,,,0.00,,2013-05-30 12:11:00,
2013-05-30 08:22:00,74.0,67.0,30.15,SSE,152,6.0,12.0,79,0.00,,,0.00,,2013-05-30 12:22:00,
2013-05-30 08:32:00,76.0,67.0,30.15,South,169,7.0,14.0,75,0.00,,,0.00,,2013-05-30 12:32:00,
2013-05-30 08:42:00,76.0,67.0,30.15,South,169,7.0,14.0,75,0.00,,,0.00,,2013-05-30 12:42:00,
2013-05-30 08:52:00,77.0,67.0,30.16,South,184,9.0,17.0,72,0.00,,,0.00,,2013-05-30 12:52:00,
2013-05-30 09:01:00,78.0,68.0,30.16,South,169,12.0,17.0,71,0.00,,,0.00,,2013-05-30 13:01:00,
2013-05-30 09:11:00,78.0,68.0,30.16,South,169,12.0,17.0,71,0.00,,,0.00,,2013-05-30 13:11:00,
2013-05-30 09:22:00,78.0,68.0,30.16,SSE,150,9.0,16.0,71,0.00,,,0.00,,2013-05-30 13:22:00,
2013-05-30 09:32:00,78.0,67.0,30.16,SE,144,8.0,18.0,70,0.00,,,0.00,,2013-05-30 13:32:00,
2013-05-30 09:42:00,78.0,67.0,30.16,SE,144,8.0,18.0,70,0.00,,,0.00,,2013-05-30 13:42:00,
2013-05-30 09:52:00,79.0,68.0,30.15,SSE,150,12.0,18.0,69,0.00,,,0.00,,2013-05-30 13:52:00,
2013-05-30 10:02:00,80.0,68.0,30.15,SSE,156,7.0,19.0,68,0.00,,,0.00,,2013-05-30 14:02:00,
2013-05-30 10:11:00,80.0,68.0,30.15,SSE,156,7.0,19.0,68,0.00,,,0.00,,2013-05-30 14:11:00,
2013-05-30 10:22:00,81.0,68.0,30.15,South,185,12.0,19.0,65,0.00,,,0.00,,2013-05-30 14:22:00,
2013-05-30 10:32:00,80.0,68.0,30.15,SSE,165,15.0,27.0,67,0.00,,,0.00,,2013-05-30 14:32:00,
2013-05-30 10:42:00,80.0,68.0,30.15,SSE,165,15.0,27.0,67,0.00,,,0.00,,2013-05-30 14:42:00,
2013-05-30 10:52:00,80.0,68.0,30.15,SSE,147,12.0,19.0,67,0.00,,,0.00,,2013-05-30 14:52:00,
2013-05-30 11:01:00,82.0,69.0,30.15,SSE,153,13.0,22.0,65,0.00,,,0.00,,2013-05-30 15:01:00,
2013-05-30 11:11:00,82.0,69.0,30.15,SSE,153,13.0,22.0,65,0.00,,,0.00,,2013-05-30 15:11:00,
2013-05-30 11:22:00,82.0,69.0,30.14,South,170,9.0,24.0,66,0.00,,,0.00,,2013-05-30 15:22:00,
2013-05-30 11:33:00,82.0,69.0,30.14,South,173,10.0,17.0,66,0.00,,,0.00,,2013-05-30 15:33:00,
2013-05-30 11:42:00,83.0,70.0,30.14,SSE,155,10.0,20.0,65,0.00,,,0.00,,2013-05-30 15:42:00,
2013-05-30 11:52:00,83.0,70.0,30.14,SSE,155,10.0,20.0,65,0.00,,,0.00,,2013-05-30 15:52:00,
2013-05-30 12:03:00,83.0,69.0,30.14,SE,132,12.0,20.0,63,0.00,,,0.00,,2013-05-30 16:03:00,
2013-05-30 12:12:00,83.0,69.0,30.14,SE,132,12.0,20.0,63,0.00,,,0.00,,2013-05-30 16:12:00,
2013-05-30 12:23:00,84.0,70.0,30.14,South,181,10.0,23.0,62,0.00,,,0.00,,2013-05-30 16:23:00,
2013-05-30 12:33:00,85.0,70.0,30.14,South,184,11.0,22.0,61,0.00,,,0.00,,2013-05-30 16:33:00,
2013-05-30 12:42:00,85.0,70.0,30.14,South,184,11.0,22.0,61,0.00,,,0.00,,2013-05-30 16:42:00,
2013-05-30 12:53:00,85.0,70.0,30.13,South,182,8.0,19.0,61,0.00,,,0.00,,2013-05-30 16:53:00,
2013-05-30 13:02:00,85.0,70.0,30.13,South,180,11.0,19.0,61,0.00,,,0.00,,2013-05-30 17:02:00,
2013-05-30 13:12:00,85.0,70.0,30.13,South,180,11.0,19.0,61,0.00,,,0.00,,2013-05-30 17:12:00,
2013-05-30 13:22:00,86.0,70.0,30.13,SSE,166,10.0,21.0,59,0.00,,,0.00,,2013-05-30 17:22:00,
2013-05-30 13:32:00,86.0,69.0,30.12,SSE,156,9.0,19.0,58,0.00,,,0.00,,2013-05-30 17:32:00,
2013-05-30 13:42:00,86.0,69.0,30.12,SSE,156,9.0,19.0,58,0.00,,,0.00,,2013-05-30 17:42:00,
2013-05-30 13:52:00,86.0,70.0,30.13,South,179,11.0,25.0,60,0.00,,,0.00,,2013-05-30 17:52:00,
2013-05-30 14:02:00,88.0,71.0,30.12,WSW,245,9.0,19.0,58,0.00,,,0.00,,2013-05-30 18:02:00,
2013-05-30 14:11:00,88.0,71.0,30.12,WSW,245,9.0,19.0,58,0.00,,,0.00,,2013-05-30 18:11:00,
2013-05-30 14:22:00,88.0,70.0,30.11,ESE,123,9.0,22.0,55,0.00,,,0.00,,2013-05-30 18:22:00,
2013-05-30 14:32:00,88.0,70.0,30.10,SSE,165,11.0,19.0,55,0.00,,,0.00,,2013-05-30 18:32:00,
2013-05-30 14:42:00,88.0,70.0,30.10,SSE,165,11.0,19.0,55,0.00,,,0.00,,2013-05-30 18:42:00,
2013-05-30 14:51:00,88.0,70.0,30.09,South,188,10.0,18.0,55,0.00,,,0.00,,2013-05-30 18:51:00,
2013-05-30 15:02:00,88.0,70.0,30.09,SSE,159,10.0,17.0,55,0.00,,,0.00,,2013-05-30 19:02:00,
2013-05-30 15:12:00,88.0,70.0,30.09,SSE,159,10.0,17.0,55,0.00,,,0.00,,2013-05-30 19:12:00,
2013-05-30 15:23:00,89.0,70.0,30.09,SSE,163,10.0,20.0,54,0.00,,,0.00,,2013-05-30 19:23:00,
2013-05-30 15:32:00,89.0,70.0,30.08,SSE,161,11.0,21.0,53,0.00,,,0.00,,2013-05-30 19:32:00,
2013-05-30 15:42:00,89.0,70.0,30.08,SSE,161,11.0,21.0,53,0.00,,,0.00,,2013-05-30 19:42:00,
2013-05-30 15:52:00,89.0,70.0,30.07,SSE,150,11.0,22.0,54,0.00,,,0.00,,2013-05-30 19:52:00,
2013-05-30 16:02:00,89.0,70.0,30.06,ESE,123,9.0,19.0,54,0.00,,,0.00,,2013-05-30 20:02:00,
2013-05-30 16:11:00,89.0,70.0,30.06,ESE,123,9.0,19.0,54,0.00,,,0.00,,2013-05-30 20:11:00,
2013-05-30 16:22:00,89.0,70.0,30.06,SSE,156,11.0,19.0,53,0.00,,,0.00,,2013-05-30 20:22:00,
2013-05-30 16:33:00,89.0,70.0,30.06,SE,128,11.0,22.0,53,0.00,,,0.00,,2013-05-30 20:33:00,
2013-05-30 16:42:00,89.0,70.0,30.06,SE,128,11.0,22.0,53,0.00,,,0.00,,2013-05-30 20:42:00,
2013-05-30 16:52:00,89.0,70.0,30.06,SSW,202,12.0,20.0,53,0.00,,,0.00,,2013-05-30 20:52:00,
2013-05-30 17:01:00,88.0,68.0,30.04,SSE,168,13.0,21.0,52,0.00,,,0.00,,2013-05-30 21:01:00,
2013-05-30 17:11:00,87.0,68.0,30.06,SE,138,14.0,22.0,54,0.00,,,0.00,,2013-05-30 21:11:00,
2013-05-30 17:22:00,87.0,68.0,30.06,SE,138,14.0,22.0,54,0.00,,,0.00,,2013-05-30 21:22:00,
2013-05-30 17:33:00,82.0,68.0,30.06,South,181,5.0,14.0,63,0.00,,,0.00,,2013-05-30 21:33:00,
2013-05-30 17:43:00,82.0,68.0,30.06,South,181,5.0,14.0,63,0.00,,,0.00,,2013-05-30 21:43:00,
2013-05-30 17:53:00,82.0,68.0,30.06,South,181,5.0,14.0,63,0.00,,,0.00,,2013-05-30 21:53:00,
2013-05-30 18:02:00,82.0,68.0,30.06,South,181,5.0,14.0,63,0.00,,,0.00,,2013-05-30 22:02:00,
2013-05-30 18:12:00,82.0,68.0,30.06,South,181,5.0,14.0,63,0.00,,,0.00,,2013-05-30 22:12:00,